Overview Statistics Trail Chart Weather Telemetry Raw packets
 

This is the latest recevied weather packets stored in our database for station/object LKCS. If no packets are shown the sender has not sent any weather packets the latest 10 day(s).

<< 15 16 17 18 19 20 21 >>
Time Temp. Humidity Pressure Rain* Wind** Luminosity Snow
1788082145 23.89° C 53% 1017 hPa - - - -
1788080594 22.78° C 53% 1018 hPa - - - -
1788078785 22.22° C 60% 1018 hPa - - - -
1788076960 21.11° C 60% 1018 hPa - - - -
1788075165 20° C 64% 1017 hPa - - - -
1788073393 20° C 64% 1017 hPa - - - -
1788071585 18.89° C 72% 1017 hPa - - - -
1788069786 17.22° C 77% 1017 hPa - - - -
1788067951 16.11° C 82% 1017 hPa - - - -
1788066168 16.11° C 77% 1017 hPa - - - -
1788064385 16.11° C 77% 1017 hPa - - - -
1788062587 16.11° C 77% 1017 hPa - - - -
1788060786 13.89° C 87% 1017 hPa - - - -
1788058986 13.89° C 87% 1017 hPa - - - -
1788057184 15° C 82% 1017 hPa - - - -
1788055386 13.89° C 87% 1017 hPa - - - -
1788053585 13.89° C 87% 1017 hPa - - - -
1788051760 13.89° C 87% 1017 hPa - - - -
1788049986 13.89° C 87% 1017 hPa - - - -
1788048186 13.89° C 87% 1017 hPa - - - -
1788046351 13.89° C 87% 1017 hPa - - - -
1788044560 13.89° C 87% 1017 hPa - - - -
1788042751 15° C 82% 1017 hPa - - - -
1788040958 16.11° C 77% 1017 hPa - - - -
1788039185 15° C 82% 1017 hPa - - - -

* Rain since midnight (hover to see other rain measurements)
** Current wind speed in m/s (hover to see current wind gust speed)